Indianapolis, IN

12:16 AM EST on December 16, 2019 (GMT -0500)
Indianapolis Terry

Weather History for KTYQ - September, 2019

Change the Weather History Date:

Thursday, September 19, 2019

  Actual Average (WUND) Record (WUND)
Temperature  
Mean Temperature 67 °F -  
Max Temperature 83 °F - - (-1)
Min Temperature 51 °F - - (-1)
Cooling Degree Days 2    
Growing Degree Days 17 (Base 50)    
Moisture  
Dew Point 60 °F    
Average Humidity 82    
Maximum Humidity 100    
Minimum Humidity 46    
Precipitation  
Precipitation 0.00 in - - ()
Sea Level Pressure  
Sea Level Pressure 30.10 in    
Wind  
Wind Speed 2 mph ()    
Max Wind Speed 6 mph    
Max Gust Speed -    
Visibility 10.0 miles    
Events      
Averages and records for this station are not official NWS values.
T = Trace of Precipitation, MM = Missing Value Source: Averaged Metar Reports

Daily Weather History Graph

Daily Weather History Graph

Search for Another Location

Airport or City:

Astronomy

Sep. 19, 2019 Rise Set
Actual Time 7:29 AM EDT 7:47 PM EDT
Civil Twilight 7:02 AM EDT 8:14 PM EDT
Nautical Twilight 6:30 AM EDT 8:46 PM EDT
Astronomical Twilight 5:58 AM EDT 9:18 PM EDT
Moon 10:56 PM EDT (9/19) 12:32 PM EDT (9/19)
Length of Visible Light 13h 12m
Length of Day
12h 17m
Waning Gibbous, 74% of the Moon is Illuminated
Sep 19
Waning Gibbous
Sep 21
Last Quarter
Sep 28
New
Oct 5
First Quarter
Oct 13
Full

Hourly Weather History & Observations

Time (EDT) Temp. Heat Index Dew Point Humidity Pressure Visibility Wind Dir Wind Speed Gust Speed Precip Events Conditions
12:15 AM 63.0 °F - 60.4 °F 91% 30.10 in 10.0 mi East 5.8 mph - N/A   Clear
12:35 AM 62.6 °F - 60.1 °F 91% 30.11 in 10.0 mi East 5.8 mph - N/A   Clear
12:55 AM 62.2 °F - 59.9 °F 92% 30.10 in 10.0 mi East 5.8 mph - N/A   Clear
1:15 AM 61.7 °F - 59.4 °F 92% 30.10 in 10.0 mi East 5.8 mph - N/A   Clear
1:35 AM 61.3 °F - 59.0 °F 92% 30.11 in 10.0 mi East 5.8 mph - N/A   Clear
1:55 AM 60.8 °F - 58.6 °F 93% 30.11 in 10.0 mi East 4.6 mph - N/A   Clear
2:15 AM 60.3 °F - 57.9 °F 92% 30.11 in 10.0 mi East 4.6 mph - N/A   Clear
2:35 AM 58.6 °F - 57.4 °F 96% 30.12 in 10.0 mi East 3.5 mph - N/A   Clear
2:55 AM 57.6 °F - 57.4 °F 99% 30.11 in 10.0 mi East 4.6 mph - N/A   Clear
3:15 AM 56.5 °F - 56.5 °F 100% 30.11 in 10.0 mi Calm Calm - N/A   Clear
3:35 AM 55.4 °F - 55.4 °F 100% 30.11 in 10.0 mi Calm Calm - N/A   Clear
3:55 AM 54.3 °F - 54.3 °F 100% 30.11 in 10.0 mi Calm Calm - N/A   Clear
4:15 AM 54.5 °F - 54.5 °F 100% 30.11 in 10.0 mi Calm Calm - N/A   Clear
4:35 AM 54.0 °F - 54.0 °F 100% 30.11 in 7.0 mi Calm Calm - N/A   Clear
4:55 AM 53.1 °F - 53.1 °F 100% 30.10 in 10.0 mi Calm Calm - N/A   Clear
5:15 AM 52.9 °F - 52.9 °F 100% 30.11 in 10.0 mi Calm Calm - N/A   Clear
5:35 AM 53.1 °F - 53.1 °F 100% 30.11 in 10.0 mi Calm Calm - N/A   Clear
5:55 AM 53.2 °F - 53.2 °F 100% 30.10 in 10.0 mi Calm Calm - N/A   Clear
6:15 AM 52.3 °F - 52.3 °F 100% 30.10 in 10.0 mi Calm Calm - N/A   Clear
6:35 AM 51.8 °F - 51.8 °F 100% 30.10 in 10.0 mi Calm Calm - N/A   Clear
6:55 AM 51.8 °F - 51.8 °F 100% 30.10 in 10.0 mi Calm Calm - N/A   Clear
7:15 AM 51.8 °F - 51.8 °F 100% 30.10 in 10.0 mi Calm Calm - N/A   Clear
7:35 AM 51.3 °F - 51.3 °F 100% 30.11 in 10.0 mi Calm Calm - N/A   Clear
7:55 AM 51.8 °F - 51.8 °F 100% 30.10 in 10.0 mi Calm Calm - N/A   Clear
8:15 AM 53.4 °F - 53.4 °F 100% 30.11 in 10.0 mi Calm Calm - N/A   Clear
8:35 AM 56.3 °F - 56.3 °F 100% 30.11 in 10.0 mi Calm Calm - N/A   Clear
8:55 AM 59.7 °F - 59.4 °F 99% 30.11 in 10.0 mi Calm Calm - N/A   Clear
9:15 AM 61.2 °F - 58.6 °F 91% 30.12 in 10.0 mi East 3.5 mph - N/A   Clear
9:35 AM 64.0 °F - 57.6 °F 79% 30.12 in 10.0 mi Calm Calm - N/A   Clear
9:55 AM 65.8 °F - 56.7 °F 72% 30.13 in 10.0 mi Calm Calm - N/A   Clear
10:15 AM 67.6 °F - 58.3 °F 72% 30.13 in 10.0 mi SE 3.5 mph - N/A   Clear
10:35 AM 69.4 °F - 58.3 °F 68% 30.13 in 10.0 mi SE 3.5 mph - N/A   Clear
10:55 AM 70.9 °F - 60.3 °F 69% 30.13 in 10.0 mi Calm Calm - N/A   Clear
11:15 AM 72.9 °F - 60.6 °F 65% 30.14 in 10.0 mi Calm Calm - N/A   Clear
11:35 AM 74.5 °F - 60.6 °F 62% 30.14 in 10.0 mi Calm Calm - N/A   Clear
11:55 AM 75.0 °F - 62.1 °F 64% 30.14 in 10.0 mi Calm Calm - N/A   Clear
12:15 PM 76.1 °F - 61.0 °F 59% 30.13 in 10.0 mi Calm Calm - N/A   Clear
12:35 PM 77.5 °F - 61.9 °F 58% 30.13 in 10.0 mi Calm Calm - N/A   Clear
12:55 PM 78.6 °F - 62.6 °F 58% 30.13 in 10.0 mi Calm Calm - N/A   Clear
1:15 PM 80.4 °F 81.7 °F 63.0 °F 55% 30.12 in 10.0 mi East 3.5 mph - N/A   Clear
1:35 PM 80.4 °F 81.6 °F 62.2 °F 54% 30.12 in 10.0 mi Calm Calm - N/A   Clear
1:55 PM 80.8 °F 82.0 °F 62.6 °F 54% 30.11 in 10.0 mi Calm Calm - N/A   Clear
2:15 PM 80.8 °F 81.9 °F 62.2 °F 53% 30.11 in 10.0 mi Calm Calm - N/A   Clear
2:35 PM 81.5 °F 82.5 °F 62.1 °F 52% 30.10 in 10.0 mi SW 3.5 mph - N/A   Clear
2:55 PM 81.5 °F 82.5 °F 62.4 °F 52% 30.10 in 10.0 mi Calm Calm - N/A   Clear
3:15 PM 81.5 °F 82.7 °F 63.0 °F 53% 30.09 in 10.0 mi SW 3.5 mph - N/A   Clear
3:35 PM 82.2 °F 83.2 °F 62.4 °F 51% 30.09 in 10.0 mi Calm Calm - N/A   Clear
3:55 PM 82.9 °F 84.2 °F 63.9 °F 52% 30.08 in 10.0 mi Calm Calm - N/A   Clear
4:15 PM 82.6 °F 83.8 °F 63.5 °F 52% 30.08 in 10.0 mi Calm Calm - N/A   Clear
4:35 PM 82.6 °F 83.8 °F 63.3 °F 52% 30.07 in 10.0 mi Calm Calm - N/A   Clear
4:55 PM 81.5 °F 83.3 °F 64.9 °F 57% 30.07 in 10.0 mi South 4.6 mph - N/A   Clear
5:15 PM 83.7 °F 84.3 °F 62.1 °F 48% 30.07 in 10.0 mi Calm Calm - N/A   Clear
5:35 PM 83.1 °F 83.3 °F 60.3 °F 46% 30.07 in 10.0 mi Calm Calm - N/A   Clear
5:55 PM 81.3 °F 83.0 °F 64.6 °F 57% 30.07 in 10.0 mi Calm Calm - N/A   Clear
6:15 PM 79.7 °F - 63.5 °F 58% 30.08 in 10.0 mi Calm Calm - N/A   Clear
6:35 PM 79.3 °F - 71.2 °F 76% 30.07 in 10.0 mi Calm Calm - N/A   Scattered Clouds
6:55 PM 78.8 °F - 69.3 °F 72% 30.07 in 10.0 mi Calm Calm - N/A   Scattered Clouds
7:15 PM 76.3 °F - 68.7 °F 77% 30.08 in 10.0 mi North 4.6 mph - N/A   Scattered Clouds
7:35 PM 72.9 °F - 70.2 °F 91% 30.08 in 10.0 mi North 3.5 mph - N/A   Scattered Clouds
7:55 PM 72.7 °F - 68.4 °F 86% 30.08 in 10.0 mi Calm Calm - N/A   Scattered Clouds
8:15 PM 70.2 °F - 68.5 °F 95% 30.08 in 10.0 mi Calm Calm - N/A   Clear
8:35 PM 67.6 °F - 67.6 °F 100% 30.08 in 10.0 mi Calm Calm - N/A   Scattered Clouds
8:55 PM 66.7 °F - 66.7 °F 100% 30.09 in 10.0 mi Calm Calm - N/A   Scattered Clouds
9:15 PM 66.6 °F - 66.6 °F 100% 30.09 in 10.0 mi NNE 3.5 mph - N/A   Clear
9:35 PM 65.3 °F - 65.3 °F 100% 30.10 in 10.0 mi Calm Calm - N/A   Clear
9:55 PM 65.1 °F - 65.1 °F 100% 30.10 in 10.0 mi Calm Calm - N/A   Clear
10:15 PM 64.6 °F - 64.6 °F 100% 30.10 in 10.0 mi Calm Calm - N/A   Clear
10:35 PM 63.5 °F - 63.5 °F 100% 30.10 in 10.0 mi Calm Calm - N/A   Clear
10:55 PM 63.0 °F - 63.0 °F 100% 30.10 in 10.0 mi Calm Calm - N/A   Clear
11:15 PM 63.1 °F - 63.1 °F 100% 30.10 in 10.0 mi Calm Calm - N/A   Clear
11:35 PM 61.9 °F - 61.9 °F 100% 30.10 in 10.0 mi Calm Calm - N/A   Clear
11:55 PM 62.1 °F - 62.1 °F 100% 30.10 in 10.0 mi Calm Calm - N/A   Clear